DW7304 Weather Reports


time (UTC)temp
C
wind
direction
speed
KPH
gust
KPH
rain 1hr
cm
rain 24hr
cm
rain mn
cm
humidity
%
barometer
mb
20260507070004 12 217 11.3 17.7 0.00 2.06 0.00 81 1008.3
20260507065403 12 203 9.7 17.7 0.00 2.24 0.00 81 1008.3
20260507064503 12 148 8.0 19.3 0.00 2.34 0.00 82 1008.1
20260507063818 12 153 6.4 19.3 0.00 2.44 0.00 83 1008.1
20260507062703 12 155 8.0 17.7 0.00 2.59 0.00 82 1008.1
20260507061803 12 157 6.4 11.3 0.00 2.74 0.00 84 1008.0
20260507060903 11 146 6.4 12.9 0.00 2.95 0.00 85 1008.0
20260507060004 11 149 8.0 12.9 0.00 3.00 0.00 85 1008.1
20260507055403 11 151 4.8 11.3 0.00 3.00 0.00 85 1008.0
20260507054503 11 182 3.2 11.3 0.00 3.00 0.00 86 1008.0
20260507053603 11 186 3.2 11.3 0.00 3.00 0.00 87 1008.0
20260507052703 10 123 3.2 6.4 0.00 3.00 0.00 88 1007.8
20260507051803 10 97 3.2 8.0 0.00 3.00 0.00 88 1007.5
20260507050903 10 145 6.4 14.5 0.00 3.00 0.00 88 1007.5
20260507050217 10 143 6.4 14.5 0.00 3.00 0.00 88 1007.4
20260507045618 10 133 4.8 9.7 0.00 3.00 0.00 88 1007.3
20260507044503 10 170 1.6 6.4 0.00 3.00 0.00 88 1007.5
20260507043603 10 154 1.6 6.4 0.00 3.00 0.00 88 1007.3
20260507042916 10 144 3.2 9.7 0.00 3.00 0.00 88 1007.4
20260507041803 10 135 8.0 12.9 0.00 3.00 0.00 88 1007.1
20260507040903 10 139 4.8 9.7 0.00 3.00 0.00 87 1007.3
20260507040003 10 136 4.8 12.9 0.00 3.00 0.00 87 1007.3
20260507035403 10 140 4.8 9.7 0.00 3.00 0.00 87 1007.2
20260507034503 10 149 4.8 11.3 0.00 3.00 0.00 87 1007.3
20260507033816 10 157 4.8 14.5 0.00 3.00 0.00 87 1007.4
20260507032703 10 147 3.2 9.7 0.00 3.00 0.00 86 1007.3
20260507032017 10 168 4.8 12.9 0.00 3.00 0.00 86 1007.2
20260507031116 10 167 8.0 14.5 0.00 3.00 0.00 87 1007.3
20260507030003 10 176 8.0 19.3 0.00 3.00 0.00 86 1007.1
20260507025403 10 168 8.0 16.1 0.00 3.00 0.00 87 1007.2
20260507024503 10 163 8.0 16.1 0.00 3.00 0.00 86 1007.1
20260507023603 10 183 9.7 19.3 0.00 3.00 0.00 86 1007.1
20260507022703 10 176 9.7 22.5 0.00 3.00 0.00 86 1007.2
20260507021803 11 174 9.7 19.3 0.00 3.05 0.00 86 1007.1
20260507020903 11 193 9.7 20.9 0.00 3.05 0.00 87 1007.1
20260507020217 11 213 8.0 20.9 0.00 3.05 0.00 87 1007.1
20260507015403 11 194 8.0 19.3 0.00 3.05 0.00 87 1007.1
20260507014503 11 191 8.0 27.4 0.00 3.05 0.00 87 1007.1
20260507013603 11 179 9.7 19.3 0.00 3.05 0.00 87 1007.1
20260507012703 11 183 9.7 20.9 0.00 3.05 0.00 87 1007.1
20260507011803 11 184 12.9 27.4 0.00 3.05 0.00 87 1007.1
20260507010903 11 173 12.9 25.7 0.00 3.10 0.00 87 1007.0
20260507010003 11 182 11.3 25.7 0.00 3.15 0.00 87 1006.8
20260507005403 11 187 12.9 24.1 0.00 3.25 0.00 87 1007.0
20260507004503 11 189 12.9 29.0 0.00 3.53 0.00 87 1006.9
20260507003603 11 184 12.9 29.0 0.00 3.78 0.00 87 1007.0
20260507002917 11 182 12.9 24.1 0.00 3.84 0.00 87 1007.2
20260507002018 11 167 12.9 25.7 0.00 3.84 0.00 87 1007.1
20260507000903 11 187 12.9 29.0 0.00 3.89 0.00 87 1007.2
20260507000004 11 176 12.9 22.5 0.00 3.89 0.00 87 1007.2
20260506235404 11 182 14.5 29.0 0.00 3.94 0.00 88 1007.3
20260506234503 11 178 14.5 30.6 0.00 4.19 0.00 88 1007.2
20260506233603 11 176 16.1 27.4 0.00 4.29 0.00 88 1007.3
20260506232703 11 178 14.5 29.0 0.00 4.34 0.00 89 1007.4
20260506231803 11 188 11.3 25.7 0.00 4.34 0.00 89 1007.4
20260506230903 11 191 17.7 32.2 0.00 4.34 0.00 89 1007.4
20260506230003 11 186 16.1 30.6 0.00 4.34 0.00 89 1007.3
20260506225403 11 175 16.1 30.6 0.00 4.34 0.00 89 1007.3
20260506224503 11 198 14.5 30.6 0.00 4.34 0.00 89 1007.3
20260506223603 11 183 17.7 30.6 0.00 4.34 0.00 89 1007.4
20260506222703 11 199 17.7 30.6 0.00 4.34 0.00 89 1007.1
20260506221803 11 192 16.1 32.2 0.00 4.34 0.00 90 1007.3
20260506220903 11 189 17.7 29.0 0.00 4.34 0.00 90 1007.2
20260506220003 11 204 16.1 29.0 0.00 4.34 0.00 90 1007.3
20260506215403 11 212 16.1 29.0 0.00 4.34 4.34 90 1007.2
20260506214503 10 212 12.9 24.1 0.00 4.34 4.34 90 1007.3
20260506213816 10 208 12.9 22.5 0.00 4.34 4.34 90 1007.3
20260506212703 11 210 16.1 27.4 0.00 4.34 4.34 89 1007.2
20260506211803 11 195 16.1 33.8 0.00 4.34 4.34 89 1007.3
20260506210903 11 193 14.5 27.4 0.00 4.34 4.34 89 1007.3
20260506210003 11 195 14.5 27.4 0.00 4.34 4.34 89 1007.3
20260506205403 11 188 12.9 27.4 0.00 4.34 4.34 88 1007.5
20260506204503 11 183 12.9 30.6 0.00 4.34 4.34 88 1007.1
20260506203603 10 197 11.3 20.9 0.00 4.34 4.34 88 1007.2
20260506202703 11 189 14.5 27.4 0.00 4.34 4.34 88 1007.4
20260506201803 11 192 14.5 24.1 0.00 4.34 4.34 88 1007.1
20260506200903 11 193 14.5 27.4 0.00 4.34 4.34 88 1007.1
20260506200003 11 179 14.5 29.0 0.00 4.34 4.34 88 1007.1
20260506195403 11 168 14.5 27.4 0.00 4.34 4.34 88 1007.0
20260506194503 11 173 14.5 27.4 0.00 4.34 4.34 88 1006.8
20260506193603 11 194 16.1 32.2 0.05 4.34 4.34 89 1006.7
20260506192917 11 184 16.1 32.2 0.05 4.34 4.34 89 1006.7
20260506191804 11 177 16.1 33.8 0.25 4.34 4.34 90 1006.3
20260506190903 11 172 12.9 27.4 0.30 4.34 4.34 90 1006.3
20260506190004 11 179 16.1 35.4 0.30 4.34 4.34 90 1006.0
20260506185403 11 187 14.5 35.4 0.30 4.34 4.34 90 1005.9
20260506184503 11 207 6.4 19.3 0.30 4.34 4.34 90 1005.7
20260506183603 11 247 4.8 19.3 0.25 4.34 4.29 90 1005.7
20260506182703 11 243 8.0 19.3 0.25 4.34 4.29 90 1006.1
20260506182018 11 227 8.0 19.3 0.10 4.24 4.14 90 1005.9
20260506180903 11 208 14.5 24.1 0.25 4.14 4.04 90 1006.1
20260506180218 11 213 12.9 25.7 0.30 4.14 4.04 90 1006.0
20260506175618 11 221 14.5 27.4 0.30 4.14 4.04 90 1006.2
20260506174503 11 211 14.5 30.6 0.30 4.14 4.04 90 1005.9
20260506173603 11 221 19.3 37.0 0.30 4.14 4.04 89 1006.1
20260506172703 11 219 16.1 30.6 0.30 4.14 4.04 89 1006.1
20260506171803 11 202 12.9 24.1 0.20 4.09 3.99 89 1005.9
20260506170903 11 174 12.9 25.7 0.05 3.94 3.78 88 1005.5
20260506170218 12 174 12.9 27.4 0.00 3.89 3.73 88 1005.5
20260506165403 11 160 11.3 24.1 0.00 3.94 3.73 88 1005.5
20260506164503 11 166 11.3 20.9 0.00 4.04 3.73 89 1005.4
20260506163603 11 165 9.7 27.4 0.00 4.09 3.73 89 1005.6
20260506162703 11 180 11.3 25.7 0.00 4.14 3.73 89 1005.8
20260506161803 11 182 12.9 24.1 0.00 4.24 3.73 89 1005.8
20260506160903 11 196 8.0 17.7 0.00 4.29 3.73 89 1005.8
20260506160003 11 186 9.7 22.5 0.00 4.39 3.73 89 1005.8
20260506155617 11 182 11.3 22.5 0.00 4.47 3.73 89 1005.8
20260506154503 11 187 14.5 30.6 0.05 4.52 3.73 89 1005.9
20260506153603 11 185 12.9 33.8 0.05 4.57 3.73 90 1005.9
20260506152703 11 177 12.9 30.6 0.05 4.57 3.73 90 1006.2
20260506151803 11 181 16.1 24.1 0.10 4.60 3.73 90 1006.2
20260506150903 11 199 14.5 30.6 0.15 4.60 3.73 90 1006.2
20260506150003 11 178 14.5 30.6 0.20 4.60 3.73 90 1006.4
20260506145403 11 192 14.5 33.8 0.20 4.60 3.73 90 1006.3
20260506144503 11 187 12.9 24.1 0.15 4.60 3.68 90 1006.6
20260506143603 11 211 12.9 24.1 0.15 4.60 3.68 90 1006.4
20260506142703 11 219 12.9 24.1 0.15 4.60 3.68 90 1006.6
20260506141804 11 195 11.3 20.9 0.10 4.57 3.63 90 1006.6
20260506140903 11 215 9.7 20.9 0.05 4.57 3.58 90 1006.7
20260506140003 10 205 9.7 20.9 0.00 4.52 3.53 90 1006.8
20260506135403 10 193 9.7 20.9 0.00 4.52 3.53 90 1006.7
20260506134504 10 177 12.9 25.7 0.05 4.52 3.53 90 1006.9
20260506133603 10 178 14.5 33.8 0.10 4.52 3.53 90 1007.0
20260506132703 10 183 14.5 30.6 0.15 4.52 3.53 91 1007.1
20260506132018 10 198 14.5 27.4 0.15 4.52 3.53 91 1007.2
20260506130903 10 217 17.7 33.8 0.15 4.57 3.53 90 1007.2
20260506130005 10 193 12.9 27.4 0.20 4.57 3.53 91 1007.4
20260506125403 10 190 12.9 27.4 0.25 4.57 3.53 91 1007.0
20260506124717 10 198 14.5 22.5 0.20 4.52 3.48 91 1007.0
20260506123603 11 202 9.7 20.9 0.15 4.45 3.43 90 1007.0
20260506122703 10 222 9.7 20.9 0.15 4.39 3.38 90 1006.7
20260506121803 10 215 14.5 27.4 0.15 4.47 3.38 90 1006.8
20260506120903 10 207 14.5 29.0 0.15 4.47 3.38 91 1007.0
20260506120003 10 204 16.1 30.6 0.10 4.39 3.33 91 1007.0
20260506115403 10 188 14.5 30.6 0.05 4.34 3.25 90 1007.0
20260506114717 10 202 12.9 25.7 0.05 4.39 3.25 90 1007.1
20260506113603 10 196 19.3 37.0 0.05 4.39 3.25 90 1007.0
20260506112918 10 185 19.3 37.0 0.00 4.34 3.20 90 1007.1
20260506111803 10 156 12.9 24.1 0.05 4.34 3.20 91 1006.9
20260506110903 10 166 12.9 27.4 0.05 4.34 3.20 90 1006.8
20260506110003 11 163 11.3 25.7 0.15 4.34 3.20 90 1007.2
20260506105403 11 160 16.1 29.0 0.20 4.34 3.20 90 1007.1
20260506104503 11 165 14.5 27.4 0.20 4.34 3.20 90 1007.1
20260506103603 11 163 12.9 25.7 0.20 4.39 3.20 90 1007.2
20260506102917 11 168 11.3 24.1 0.20 4.39 3.20 90 1007.2
20260506101804 11 157 8.0 19.3 0.15 4.34 3.15 90 1007.4
20260506101122 11 168 9.7 20.9 0.15 4.39 3.15 90 1007.4
20260506100003 11 166 12.9 22.5 0.05 4.29 3.05 90 1007.5
20260506095403 11 158 12.9 24.1 0.00 4.24 3.00 90 1007.4
20260506094503 11 145 11.3 20.9 0.05 4.24 3.00 90 1007.4
20260506093603 11 150 11.3 19.3 0.10 4.24 3.00 90 1007.5
20260506092703 11 159 9.7 19.3 0.15 4.24 3.00 90 1007.5
20260506091803 11 156 9.7 20.9 0.20 4.24 3.00 90 1007.5
20260506090903 11 138 8.0 16.1 0.25 4.24 3.00 90 1007.5
20260506090004 10 154 11.3 20.9 0.36 4.24 3.00 91 1007.5
20260506085403 10 157 9.7 20.9 0.41 4.24 3.00 91 1007.5
20260506084503 11 159 11.3 19.3 0.36 4.19 2.95 91 1007.6
20260506083603 10 149 11.3 20.9 0.36 4.14 2.95 91 1007.5
20260506082703 10 154 12.9 24.1 0.30 4.09 2.84 91 1007.4
20260506081803 10 171 12.9 25.7 0.30 4.04 2.79 91 1007.4
20260506081117 10 175 9.7 20.9 0.25 3.99 2.74 91 1007.3
20260506072703 10 191 1.6 6.4 0.79 3.78 2.54 91 1007.4
20260506071803 10 243 0.0 3.2 0.89 3.73 2.49 91 1007.5
20260506071117 10 261 1.6 6.4 1.04 3.73 2.49 91 1007.5